This is the latest recevied weather packets stored in our database for station/object KD8FRE. If no packets are shown the sender has not sent any weather packets the latest 10 day(s).
| Time | Temp. | Humidity | Pressure | Rain* | Wind** | Luminosity | Snow |
|---|---|---|---|---|---|---|---|
| 1777732238 | 5° C | 52% | 1018.4 hPa | 0 mm | - | 201 W/m² | - |
| 1777731934 | 5° C | 51% | 1018.4 hPa | 0 mm | - | 304 W/m² | - |
| 1777731631 | 4.44° C | 52% | 1018.4 hPa | 0 mm | - | 155 W/m² | - |
| 1777731329 | 5° C | 52% | 1018.3 hPa | 0 mm | - | 422 W/m² | - |
| 1777731026 | 5° C | 52% | 1018.3 hPa | 0 mm | - | 87 W/m² | - |
| 1777730725 | 5° C | 55% | 1018.3 hPa | 0 mm | - | 85 W/m² | - |
| 1777730421 | 5° C | 56% | 1018.3 hPa | 0 mm | - | 478 W/m² | - |
| 1777730117 | 5° C | 57% | 1018.2 hPa | 0 mm | - | 315 W/m² | - |
| 1777729813 | 5° C | 55% | 1018.5 hPa | 0 mm | - | 55 W/m² | - |
| 1777729510 | 4.44° C | 57% | 1018.4 hPa | 0 mm | - | 414 W/m² | - |
| 1777729207 | 4.44° C | 60% | 1018.3 hPa | 0 mm | - | 223 W/m² | - |
| 1777728903 | 4.44° C | 60% | 1018.5 hPa | 0 mm | - | 176 W/m² | - |
| 1777728600 | 3.89° C | 60% | 1018.5 hPa | 0 mm | - | 299 W/m² | - |
| 1777728297 | 3.89° C | 61% | 1018.3 hPa | 0 mm | - | 303 W/m² | - |
| 1777727995 | 3.89° C | 61% | 1018.6 hPa | 0 mm | - | 326 W/m² | - |
| 1777727691 | 3.89° C | 62% | 1018.5 hPa | 0 mm | - | 246 W/m² | - |
| 1777727388 | 3.89° C | 64% | 1018.4 hPa | 0 mm | - | 212 W/m² | - |
| 1777727086 | 3.89° C | 64% | 1018.6 hPa | 0 mm | - | 233 W/m² | - |
| 1777726783 | 3.89° C | 63% | 1018.5 hPa | 0 mm | - | 192 W/m² | - |
| 1777726480 | 3.89° C | 65% | 1018.4 hPa | 0 mm | - | 217 W/m² | - |
| 1777726177 | 3.33° C | 67% | 1018.5 hPa | 0 mm | - | 148 W/m² | - |
| 1777725873 | 3.33° C | 66% | 1018.3 hPa | 0 mm | - | 133 W/m² | - |
| 1777725571 | 3.33° C | 68% | 1018.3 hPa | 0 mm | - | 132 W/m² | - |
| 1777725268 | 2.78° C | 68% | 1018.3 hPa | 0 mm | - | 63 W/m² | - |
| 1777724965 | 2.78° C | 70% | 1018.4 hPa | 0 mm | - | 71 W/m² | - |
* Rain latest hour (hover to see other rain measurements)
** Current wind speed in m/s (hover to see current wind gust speed)